Regional Weather Roundup
Issued by NWS Northern Indiana

Home | Current Version | Previous Version | Text Only | Print | Product List | Glossary Off
Versions: 1 2 3 4 5 6 7 8 9 10 11 12 13 14 15 16 17 18 19 20 21 22 23 24 25 26 27 28 29 30 31 32 33 34 35 36 37 38 39 40 41 42 43 44 45 46 47 48 49 50

000
ASUS43 KIWX 261200
RWRIWX

KIWX WEATHER ROUNDUP
NATIONAL WEATHER SERVICE NORTHERN INDIANA
800 AM EDT WED APR 26 2017

NOTE: "FAIR" INDICATES FEW OR NO CLOUDS BELOW 12,000 FEET WITH NO
SIGNIFICANT WEATHER AND/OR OBSTRUCTIONS TO VISIBILITY.

* THESE STATIONS ARE NOT UNDER NWS QUALITY CONTROL. THEY ALSO MAY NOT
  REPORT WEATHER SUCH AS PRECIPITATION OR FOG.

INZ001>027-261300-
NORTHERN INDIANA

CITY           SKY/WX    TMP DP  RH WIND       PRES   REMARKS
GARY*          PTSUNNY   66  54  63 SE15      29.51R
MICHIGAN CITY* CLOUDY    63  54  72 S8        29.54R
KNOX*          CLOUDY    63  36  36 S13       29.54R
SOUTH BEND     CLOUDY    62  55  77 S12       29.56S
6HR MIN TEMP:  62; 6HR MAX TEMP:  66; 6HR PCP: TRACE;

ELKHART*       CLOUDY    63  55  77 SE5       29.57F
GOSHEN         PTSUNNY   63  54  72 S15       29.58S
6HR MIN TEMP:  62; 6HR MAX TEMP:  64; 6HR PCP: TRACE;

MONTICELLO*    MOSUNNY   64  55  73 S9G16     29.56R
6HR MIN TEMP:  63; 6HR MAX TEMP:  65;

WARSAW*        CLOUDY    61  54  77 SE6       29.59S
ANGOLA*        SUNNY     59  55  88 SE8       29.62F
FORT WAYNE     CLOUDY    60  55  83 SE10      29.63F
6HR MIN TEMP:  58; 6HR MAX TEMP:  60;

HUNTINGTON*    CLOUDY    60  56  87 S6        29.62S
6HR MIN TEMP:  58; 6HR MAX TEMP:  62;

PERU/GRISSOM   MOSUNNY   62  58  86 S13       29.59R
6HR MIN TEMP:  60; 6HR MAX TEMP:  62;


$$
INZ028>050-261300-
CENTRAL INDIANA

CITY           SKY/WX    TMP DP  RH WIND       PRES   REMARKS
LAFAYETTE      PTSUNNY   63  56  78 S12G18    29.57R
6HR MIN TEMP:  62; 6HR MAX TEMP:  64;

KOKOMO*        MOSUNNY   62  56  80 S16       29.62R
6HR MIN TEMP:  60; 6HR MAX TEMP:  62;

MUNCIE*        CLOUDY    65  55  70 S9        29.63F
6HR MIN TEMP:  62; 6HR MAX TEMP:  65;

INDIANAPOLIS   CLOUDY    61  56  83 S9        29.62R
6HR MIN TEMP:  60; 6HR MAX TEMP:  63;


$$
MIZ043>046-050>051-056>058-064>065-071>073-077>080-261300-
SOUTHWEST LOWER MICHIGAN

CITY           SKY/WX    TMP DP  RH WIND       PRES   REMARKS
BATTLE CREEK   CLOUDY    61  55  81 SE10      29.60F
6HR MIN TEMP:  60; 6HR MAX TEMP:  62;

BENTON HARBOR  CLOUDY    65  55  70 SE9       29.53S
6HR MIN TEMP:  63; 6HR MAX TEMP:  66;

COLDWATER*     CLOUDY    61  55  82 SE12G17   29.61F
6HR MIN TEMP:  58; 6HR MAX TEMP:  61;

HILLSDALE*     CLOUDY    59  54  82 SE12      29.65F
HOLLAND        MOSUNNY   63  55  75 SE9       29.55F
6HR MIN TEMP:  60; 6HR MAX TEMP:  64;

GRAND RAPIDS   CLOUDY    61  56  83 SE13      29.57F
6HR MIN TEMP:  59; 6HR MAX TEMP:  62;

KALAMAZOO      CLOUDY    62  53  72 SE8       29.59F
6HR MIN TEMP:  60; 6HR MAX TEMP:  62;

STURGIS*       CLOUDY    61  55  81 S12       29.59S
6HR MIN TEMP:  57; 6HR MAX TEMP:  61;

THREE RIVERS*  FAIR      62  55  76 S10G16    29.59S
6HR MIN TEMP:  56; 6HR MAX TEMP:  62;


$$
OHZ001>008-015>018-024>025-261300-
NORTHWEST OHIO

CITY           SKY/WX    TMP DP  RH WIND       PRES   REMARKS
DEFIANCE       MOSUNNY   60  54  80 SE10      29.66S
6HR MIN TEMP:  55; 6HR MAX TEMP:  61;

FINDLAY        CLOUDY    59  53  80 SE13      29.70R
6HR MIN TEMP:  58; 6HR MAX TEMP:  62;

TOLEDO EXPRESS MOSUNNY   59  56  89 VRB5      29.69R
6HR MIN TEMP:  55; 6HR MAX TEMP:  59;

TOLEDO METCALF CLOUDY    59  56  89 SE10      29.70S
6HR MIN TEMP:  56; 6HR MAX TEMP:  59;

LIMA           PTSUNNY   60  56  86 S13       29.70R
6HR MIN TEMP:  57; 6HR MAX TEMP:  62;


$$
AND FOR LAKE MICHIGAN COASTAL AND OPEN LAKE BUOY OBSERVATIONS

STATION/POSITION TEMP    WIND        PRES    VSBY  WAVE
                 AIR SEA DIR/SP/G                  HT/PER
                 (F)     (DEG/KT/KT) (MB)    (MI)  (FT/S)
CALUMET HARBOR    65     150/  8/ 15  998.3R
MICHIGAN CITY     64     150/ 11/ 15   N/A
BURNS HARBOR      65     160/  9/ 16 1000.0R
SOUTH LAKE BUOY   47 41  120/ 12/ 14  999.2          1/ 3
4 MI NW BRIDGMAN  59 49  170/ 12/ 14  999.9S         2/ 2

$$
&&



USA.gov is the U.S. government's official web portal to all federal, state and local government web resources and services.